AVA9384 SKCL-SKRG

Flight info

Callsign AVA9384
Flight time 0h 30m
Altitude 23000
Route ULQ1B ULQ W3 ISVON ISVON4A
Aircraft A320/M-SDE3FGHIRWY/LB1

Departure

Time 2026-04-30 05:05
Airport Alfonso Bonilla Aragon International Airport (SKCL)

Arrival

Time 2026-04-30 05:35
Airport Jose Maria Córdova International Airport (SKRG)
Time Latitude Longitude Altitude Speed Heading
2026-04-30 04:55 3.53855 -76.38740 3163 ft 0 kts 201°
2026-04-30 04:56 3.53862 -76.38737 3163 ft 2 kts 201°
2026-04-30 04:57 3.53877 -76.38731 3164 ft 2 kts 201°
2026-04-30 04:57 3.53892 -76.38726 3164 ft 2 kts 201°
2026-04-30 04:57 3.53907 -76.38720 3163 ft 2 kts 163°
2026-04-30 04:57 3.53918 -76.38730 3163 ft 2 kts 96°
2026-04-30 04:58 3.53920 -76.38746 3163 ft 1 kts 96°
2026-04-30 04:59 3.53920 -76.38745 3163 ft 1 kts 96°
2026-04-30 05:00 3.53919 -76.38735 3163 ft 1 kts 96°
2026-04-30 05:00 3.53915 -76.38700 3163 ft 7 kts 96°
2026-04-30 05:00 3.53903 -76.38660 3163 ft 5 kts 127°
2026-04-30 05:00 3.53877 -76.38640 3163 ft 7 kts 144°
2026-04-30 05:01 3.53774 -76.38567 3164 ft 23 kts 145°
2026-04-30 05:01 3.53653 -76.38483 3163 ft 9 kts 145°
2026-04-30 05:01 3.53600 -76.38460 3163 ft 8 kts 184°
2026-04-30 05:01 3.53528 -76.38468 3162 ft 21 kts 188°
2026-04-30 05:02 3.53351 -76.38500 3162 ft 27 kts 189°
2026-04-30 05:02 3.53167 -76.38530 3162 ft 21 kts 190°
2026-04-30 05:02 3.53063 -76.38549 3162 ft 11 kts 190°
2026-04-30 05:02 3.53006 -76.38539 3162 ft 8 kts 130°
2026-04-30 05:03 3.52992 -76.38490 3160 ft 7 kts 101°
2026-04-30 05:03 3.52992 -76.38446 3160 ft 6 kts 68°
2026-04-30 05:03 3.53023 -76.38416 3159 ft 9 kts 39°
2026-04-30 05:03 3.53108 -76.38376 3159 ft 16 kts 12°
2026-04-30 05:04 3.53242 -76.38353 3159 ft 35 kts 10°
2026-04-30 05:04 3.53734 -76.38267 3165 ft 105 kts 10°
2026-04-30 05:04 3.54645 -76.38109 3165 ft 159 kts
2026-04-30 05:04 3.55826 -76.37896 3554 ft 175 kts 10°
2026-04-30 05:05 3.57044 -76.37704 4237 ft 181 kts
2026-04-30 05:05 3.58328 -76.37497 4601 ft 196 kts
2026-04-30 05:05 3.59750 -76.37240 4829 ft 218 kts 10°
2026-04-30 05:06 3.63048 -76.36635 5351 ft 266 kts 10°
2026-04-30 05:06 3.64945 -76.36291 5972 ft 278 kts 10°
2026-04-30 05:06 3.66838 -76.35950 6730 ft 282 kts 10°
2026-04-30 05:06 3.68789 -76.35602 7505 ft 286 kts 10°
2026-04-30 05:07 3.70741 -76.35147 8266 ft 290 kts 17°
2026-04-30 05:07 3.72683 -76.34568 9045 ft 293 kts 17°
2026-04-30 05:07 3.74650 -76.33982 9817 ft 297 kts 17°
2026-04-30 05:07 3.76647 -76.33390 10466 ft 303 kts 17°
2026-04-30 05:08 3.78750 -76.32767 10671 ft 326 kts 17°
2026-04-30 05:08 3.80945 -76.32079 11056 ft 339 kts 19°
2026-04-30 05:08 3.83199 -76.31318 11678 ft 344 kts 20°
2026-04-30 05:08 3.85473 -76.30524 12343 ft 347 kts 21°
2026-04-30 05:09 3.87760 -76.29718 13017 ft 350 kts 21°
2026-04-30 05:09 3.90068 -76.28906 13678 ft 353 kts 21°
2026-04-30 05:09 3.92402 -76.28092 14252 ft 356 kts 21°
2026-04-30 05:09 3.94753 -76.27282 14817 ft 359 kts 21°
2026-04-30 05:10 3.97128 -76.26469 15372 ft 362 kts 21°
2026-04-30 05:10 3.99517 -76.25653 15923 ft 365 kts 21°
2026-04-30 05:10 4.01946 -76.24824 16480 ft 368 kts 21°
2026-04-30 05:10 4.04381 -76.23994 17032 ft 372 kts 21°
2026-04-30 05:11 4.06842 -76.23154 17575 ft 375 kts 21°
2026-04-30 05:11 4.09267 -76.22257 18094 ft 377 kts 26°
2026-04-30 05:11 4.11585 -76.21014 18565 ft 379 kts 31°
2026-04-30 05:11 4.13888 -76.19705 19006 ft 382 kts 31°
2026-04-30 05:12 4.16209 -76.18385 19453 ft 385 kts 31°
2026-04-30 05:12 4.18551 -76.17053 19892 ft 388 kts 31°
2026-04-30 05:12 4.20919 -76.15709 20328 ft 392 kts 31°
2026-04-30 05:12 4.23305 -76.14355 20754 ft 395 kts 31°
2026-04-30 05:13 4.25682 -76.13007 21163 ft 398 kts 31°
2026-04-30 05:13 4.28129 -76.11625 21585 ft 401 kts 31°
2026-04-30 05:13 4.30575 -76.10249 21985 ft 405 kts 31°
2026-04-30 05:13 4.33048 -76.08863 22395 ft 408 kts 31°
2026-04-30 05:14 4.35535 -76.07469 22798 ft 411 kts 31°
2026-04-30 05:14 4.38035 -76.06067 22937 ft 411 kts 31°
2026-04-30 05:14 4.40491 -76.04691 22970 ft 397 kts 31°
2026-04-30 05:14 4.42890 -76.03347 22974 ft 393 kts 31°
2026-04-30 05:15 4.45274 -76.02008 22977 ft 392 kts 31°
2026-04-30 05:15 4.47649 -76.00674 22980 ft 392 kts 31°
2026-04-30 05:15 4.50002 -75.99355 22983 ft 392 kts 31°
2026-04-30 05:15 4.52297 -75.98072 22985 ft 392 kts 31°
2026-04-30 05:16 4.54685 -75.96741 22958 ft 392 kts 31°
2026-04-30 05:16 4.57067 -75.95413 22959 ft 392 kts 31°
2026-04-30 05:16 4.59453 -75.94080 22965 ft 392 kts 31°
2026-04-30 05:16 4.61835 -75.92747 22965 ft 392 kts 31°
2026-04-30 05:17 4.64218 -75.91412 22966 ft 392 kts 31°
2026-04-30 05:17 4.66595 -75.90080 22968 ft 392 kts 31°
2026-04-30 05:17 4.68979 -75.88747 22966 ft 392 kts 31°
2026-04-30 05:17 4.71359 -75.87416 22965 ft 392 kts 31°
2026-04-30 05:18 4.73713 -75.86099 22961 ft 392 kts 31°
2026-04-30 05:18 4.76089 -75.84769 22962 ft 392 kts 31°
2026-04-30 05:18 4.78514 -75.83514 23042 ft 393 kts 24°
2026-04-30 05:18 4.81089 -75.82582 23045 ft 394 kts 20°
2026-04-30 05:19 4.83683 -75.81683 23042 ft 394 kts 20°
2026-04-30 05:19 4.86272 -75.80784 23044 ft 394 kts 21°
2026-04-30 05:19 4.88865 -75.79879 23040 ft 394 kts 21°
2026-04-30 05:19 4.91461 -75.78973 23039 ft 394 kts 21°
2026-04-30 05:20 4.94049 -75.78069 23028 ft 395 kts 21°
2026-04-30 05:20 4.96648 -75.77162 23025 ft 395 kts 21°
2026-04-30 05:20 4.99248 -75.76254 23015 ft 395 kts 20°
2026-04-30 05:20 5.01838 -75.75345 23006 ft 395 kts 21°
2026-04-30 05:21 5.04435 -75.74431 23001 ft 395 kts 21°
2026-04-30 05:21 5.07027 -75.73521 22992 ft 395 kts 20°
2026-04-30 05:21 5.09617 -75.72617 23071 ft 395 kts 21°
2026-04-30 05:21 5.12216 -75.71711 23074 ft 395 kts 20°
2026-04-30 05:22 5.14818 -75.70805 23074 ft 395 kts 20°
2026-04-30 05:22 5.17417 -75.69903 23045 ft 394 kts 20°
2026-04-30 05:22 5.19985 -75.69014 22784 ft 386 kts 20°
2026-04-30 05:22 5.22500 -75.68141 22521 ft 377 kts 20°
2026-04-30 05:23 5.24989 -75.67275 22265 ft 389 kts 21°
2026-04-30 05:23 5.27592 -75.66364 21985 ft 392 kts 21°
2026-04-30 05:23 5.30103 -75.65490 21723 ft 383 kts 20°
2026-04-30 05:23 5.32586 -75.64626 21462 ft 374 kts 21°
2026-04-30 05:24 5.35024 -75.63779 21200 ft 367 kts 21°
2026-04-30 05:24 5.37414 -75.62946 20939 ft 361 kts 21°
2026-04-30 05:24 5.39779 -75.62117 20528 ft 359 kts 22°
2026-04-30 05:24 5.42022 -75.61047 20098 ft 356 kts 30°
2026-04-30 05:25 5.44212 -75.59879 19663 ft 356 kts 30°
2026-04-30 05:25 5.46400 -75.58717 19228 ft 356 kts 29°
2026-04-30 05:25 5.48591 -75.57558 18802 ft 356 kts 29°
2026-04-30 05:25 5.50782 -75.56400 18362 ft 355 kts 29°
2026-04-30 05:26 5.52968 -75.55246 17888 ft 355 kts 30°
2026-04-30 05:26 5.55169 -75.54082 17176 ft 361 kts 30°
2026-04-30 05:26 5.57369 -75.52916 16735 ft 352 kts 30°
2026-04-30 05:26 5.59499 -75.51790 16298 ft 339 kts 30°
2026-04-30 05:27 5.61550 -75.50707 15911 ft 327 kts 30°
2026-04-30 05:27 5.63540 -75.49654 15533 ft 327 kts 30°
2026-04-30 05:27 5.65557 -75.48584 15146 ft 327 kts 30°
2026-04-30 05:27 5.67572 -75.47515 14770 ft 328 kts 30°
2026-04-30 05:28 5.69590 -75.46444 14376 ft 329 kts 30°
2026-04-30 05:28 5.71616 -75.45369 14044 ft 328 kts 31°
2026-04-30 05:28 5.73588 -75.44323 13923 ft 311 kts 30°
2026-04-30 05:28 5.75430 -75.43351 13804 ft 289 kts 31°
2026-04-30 05:29 5.77201 -75.42521 13612 ft 277 kts 21°
2026-04-30 05:29 5.79081 -75.42158 13211 ft 276 kts
2026-04-30 05:29 5.81002 -75.42101 12728 ft 278 kts
2026-04-30 05:29 5.82932 -75.42045 12492 ft 276 kts
2026-04-30 05:30 5.84849 -75.41987 12242 ft 275 kts
2026-04-30 05:30 5.86127 -75.41947 11903 ft 281 kts
2026-04-30 05:30 5.88058 -75.41887 11630 ft 271 kts
2026-04-30 05:30 5.90447 -75.41832 11463 ft 264 kts
2026-04-30 05:31 5.91759 -75.41853 11191 ft 266 kts
2026-04-30 05:31 5.93592 -75.41921 10849 ft 261 kts 359°
2026-04-30 05:31 5.95389 -75.42006 10546 ft 258 kts 359°
2026-04-30 05:31 5.97202 -75.42091 10233 ft 262 kts 359°
2026-04-30 05:32 5.99007 -75.42171 9887 ft 262 kts 359°
2026-04-30 05:32 6.00805 -75.42227 9578 ft 255 kts
2026-04-30 05:32 6.02538 -75.42232 9416 ft 243 kts
2026-04-30 05:32 6.04196 -75.42234 9174 ft 233 kts
2026-04-30 05:33 6.05769 -75.42243 8888 ft 217 kts
2026-04-30 05:33 6.07214 -75.42253 8631 ft 199 kts
2026-04-30 05:33 6.08557 -75.42262 8387 ft 188 kts
2026-04-30 05:33 6.09823 -75.42270 8164 ft 176 kts
2026-04-30 05:34 6.11017 -75.42278 7907 ft 168 kts
2026-04-30 05:34 6.12147 -75.42285 7674 ft 161 kts
2026-04-30 05:34 6.13252 -75.42292 7414 ft 157 kts
2026-04-30 05:34 6.14336 -75.42298 7135 ft 155 kts
2026-04-30 05:35 6.15398 -75.42305 6979 ft 144 kts
2026-04-30 05:35 6.16159 -75.42310 6982 ft 66 kts 360°
2026-04-30 05:35 6.16539 -75.42311 6998 ft 48 kts 359°
2026-04-30 05:35 6.16817 -75.42313 7012 ft 28 kts 359°
2026-04-30 05:36 6.16961 -75.42340 7018 ft 20 kts 343°
2026-04-30 05:36 6.17082 -75.42391 7019 ft 15 kts 327°
2026-04-30 05:36 6.17164 -75.42443 7021 ft 10 kts 324°
2026-04-30 05:36 6.17151 -75.42487 7020 ft 7 kts 205°
2026-04-30 05:37 6.17100 -75.42488 7017 ft 8 kts 179°
2026-04-30 05:37 6.17048 -75.42487 7019 ft 7 kts 179°
2026-04-30 05:37 6.16997 -75.42491 7017 ft 10 kts 196°
2026-04-30 05:37 6.16979 -75.42543 7019 ft 9 kts 297°
2026-04-30 05:38 6.17036 -75.42589 7021 ft 13 kts 313°
2026-04-30 05:38 6.17059 -75.42666 7017 ft 8 kts 288°
2026-04-30 05:38 6.17071 -75.42696 7018 ft 0 kts 292°